[[{"header":{"parameterUnit":"m.s-1","parameterCategory":1,"la1":30.2991,"la2":30.254,"lo1":-89.0895,"lo2":-89.0444,"dy":0.0017,"dx":0.0017,"nx":28,"ny":28,"refTime":"2023-10-19T09:00:00:Z","depth":0,"parameterNumber":2,"parameterNumberName":"U-component_of_WINDS"},"data":[0,0,0,0,0,0,0,0,0,0,0,0,0,0,0,0,0,0,0,0,0,0,0,0,0,0,0,0,0,0,0,0,0,0,0,0,0,0,0,0,0,0,0,0,0,0,0,0,0,0,0,0,0,0,0,0,0,0,0.4119,0.4119,0,0.4142,0.4142,0.4143,0.4156,0.4156,0.4156,0.4156,0.4177,0.4178,0.4178,0,0,0,0,0,0,0,0,0,0,0,0,0,0.4084,0.4085,0.4119,0.4119,0.412,0.4142,0.4142,0.4143,0.4156,0.4156,0.4156,0.4156,0.4177,0.4177,0.4178,0,0,0,0,0,0,0,0,0,0,0,0,0,0.4102,0.4085,0.4119,0.4129,0.413,0.4142,0.4142,0.4143,0.4156,0.4156,0.4156,0.4156,0.4177,0.4177,0.4178,0.4181,0,0,0.4181,0.4181,0,0,0,0,0,0,0,0,0.4101,0.4104,0.4127,0.4128,0.413,0.4146,0.4138,0.4156,0.4156,0.4146,0.4156,0.4156,0.4167,0.4168,0.4172,0.4182,0.4183,0.4181,0.4181,0.4181,0.4182,0,0,0,0,0,0,0,0.41,0.4103,0.4128,0.4128,0.4129,0.4132,0.4134,0.4141,0.4155,0.4147,0.4148,0.4151,0.4167,0.4171,0.4173,0.4183,0.4181,0.4181,0.4182,0.4182,0.4198,0.4198,0,0,0,0,0,0,0.4098,0.4102,0.4127,0.4129,0.4115,0.4132,0.4135,0.4141,0.4155,0.4158,0.415,0.4151,0.417,0.4172,0.4174,0.4178,0.4181,0.4182,0.4183,0.4198,0.4198,0.4198,0,0,0,0,0,0,0.4097,0.41,0.4126,0.4116,0.4119,0.4133,0.4139,0.4141,0.4146,0.4158,0.4161,0.4152,0.417,0.4173,0.418,0.4179,0.4182,0.4183,0.4198,0.4198,0.4198,0.4188,0,0,0,0,0,0,0.4096,0.4099,0.4101,0.4116,0.412,0.4133,0.4139,0.4142,0.4147,0.4148,0.4161,0.4163,0.4171,0.4178,0.418,0.418,0.4184,0.4198,0.4198,0.4198,0.4188,0.4188,0.4187,0,0,0,0,0,0.4094,0.4097,0.4101,0.4104,0.4122,0.4133,0.4135,0.4145,0.4147,0.4149,0.4157,0.4162,0.4179,0.4179,0.4181,0.4182,0.4198,0.4198,0.4198,0.4189,0.4188,0.4187,0,0,0,0,0,0,0.4081,0.4099,0.4104,0.4111,0.412,0.4135,0.4137,0.4143,0.4151,0.4152,0.4163,0.4165,0.4171,0.4177,0.4177,0.4186,0.4189,0.4189,0.4182,0.4181,0.418,0.4178,0.4184,0,0,0,0,0,0.4079,0.4086,0.4101,0.4106,0.4111,0.4123,0.4128,0.4135,0.4144,0.4148,0.4157,0.4165,0.4173,0.4177,0.4184,0.4189,0.4192,0.4191,0.419,0.419,0.419,0.4193,0.4193,0.4197,0.4197,0.4197,0,0,0.4074,0.4085,0.4089,0.4104,0.4112,0.4119,0.4126,0.4133,0.4138,0.4149,0.4156,0.4163,0.4173,0.4179,0.4183,0.4185,0.4189,0.4189,0.4189,0.4189,0.4193,0.4192,0.4192,0.4197,0.4197,0.4197,0,0,0.407,0.4079,0.4084,0.4093,0.4105,0.4113,0.4115,0.4128,0.4134,0.4142,0.415,0.4156,0.4168,0.4175,0.418,0.418,0.4185,0.4182,0.4178,0.4181,0.4181,0.418,0.418,0.418,0.4182,0.4182,0.4182,0,0.4062,0.4074,0.4086,0.4093,0.4099,0.411,0.4115,0.4123,0.4136,0.414,0.4142,0.4159,0.4166,0.4174,0.4174,0.4178,0.418,0.418,0.418,0.418,0.418,0.4179,0.4179,0.4181,0.4181,0.4181,0.4181,0,0.4065,0.4073,0.4075,0.409,0.4096,0.4102,0.4114,0.4119,0.4126,0.4134,0.4142,0.4152,0.4161,0.4164,0.417,0.4173,0.4174,0.4178,0.4181,0.4178,0.4179,0.4179,0.4181,0.4181,0.4181,0.4181,0,0,0.4051,0.4073,0.4074,0.4081,0.4096,0.4102,0.4108,0.4119,0.4123,0.4132,0.4138,0.4149,0.4153,0.4159,0.4165,0.4168,0.4167,0.4172,0.4172,0.4171,0.4172,0.4168,0.4168,0.4171,0.4171,0.4171,0.4171,0,0.4048,0.4062,0.4073,0.4082,0.4089,0.4101,0.4106,0.4116,0.4124,0.4131,0.4139,0.4146,0.4151,0.4155,0.4158,0.4167,0.4168,0.4167,0.4176,0.4176,0.4173,0.4168,0.4165,0.4164,0.4171,0.4171,0.4171,0,0.4047,0.4057,0.4067,0.4083,0.4086,0.4091,0.4102,0.4109,0.412,0.4125,0.4133,0.414,0.4147,0.4151,0.416,0.4159,0.4164,0.4169,0.4169,0.417,0.4173,0.4169,0.4163,0.4163,0.4171,0.4171,0.4171,0,0.4036,0.4052,0.4061,0.4066,0.4084,0.4087,0.4095,0.4106,0.4112,0.4121,0.4125,0.4135,0.414,0.4147,0.4157,0.4159,0.4166,0.417,0.417,0.417,0.417,0.417,0.4166,0.4174,0.4174,0.4174,0.4174,0,0.4032,0.4037,0.4056,0.4061,0.4068,0.4081,0.4086,0.4095,0.4105,0.4111,0.4121,0.4127,0.414,0.4147,0.4154,0.4161,0.4163,0.4168,0.4169,0.4167,0.4166,0.4169,0.4169,0.4174,0.4174,0.4174,0.4174,0,0.402,0.4033,0.4043,0.406,0.4064,0.4068,0.4082,0.4087,0.4096,0.4104,0.4107,0.412,0.4129,0.414,0.4152,0.4157,0.4163,0.4166,0.416,0.4161,0.416,0.416,0.4157,0.4158,0.4166,0.4165,0.4165,0,0.4017,0.4021,0.4039,0.4045,0.4052,0.4061,0.4068,0.4081,0.4087,0.4101,0.4104,0.4114,0.4122,0.4136,0.4146,0.4156,0.4159,0.4157,0.416,0.4157,0.4159,0.4158,0.4159,0.4156,0.4156,0.4156,0.4156,0,0.4008,0.4015,0.4025,0.4037,0.4045,0.4055,0.4065,0.4068,0.4083,0.409,0.41,0.4107,0.412,0.4129,0.414,0.4147,0.4154,0.4155,0.4156,0.4153,0.4149,0.4151,0.4157,0.4155,0.4155,0.4155,0.4155,0.4155,0.4,0.4006,0.4019,0.403,0.4039,0.4049,0.4055,0.4065,0.4074,0.4086,0.4093,0.4103,0.4114,0.413,0.4137,0.4144,0.4147,0.4147,0.4148,0.4147,0.4147,0.4148,0.4146,0.4146,0.4146,0.4146,0.4147,0,0.3993,0.4003,0.4012,0.4027,0.4035,0.4043,0.4055,0.4061,0.407,0.408,0.4089,0.4101,0.411,0.4122,0.4133,0.4136,0.414,0.4139,0.4138,0.414,0.4144,0.4142,0.4136,0.4136,0.4136,0.4136,0.4136,0.4136,0.399,0.3999,0.4007,0.4021,0.403,0.4041,0.4047,0.4056,0.4065,0.4078,0.4086,0.4095,0.4106,0.4117,0.4126,0.413,0.4133,0.4131,0.4135,0.4138,0.4139,0.414,0.4139,0.4131,0.4131,0.413,0.413,0.413]},{"header":{"parameterUnit":"m.s-1","parameterCategory":1,"la1":30.2991,"la2":30.254,"lo1":-89.0895,"lo2":-89.0444,"dy":0.0017,"dx":0.0017,"nx":28,"ny":28,"refTime":"2023-10-19T09:00:00:Z","depth":0,"parameterNumber":3,"parameterNumberName":"V-component_of_WINDS"},"data":[0,0,0,0,0,0,0,0,0,0,0,0,0,0,0,0,0,0,0,0,0,0,0,0,0,0,0,0,0,0,0,0,0,0,0,0,0,0,0,0,0,0,0,0,0,0,0,0,0,0,0,0,0,0,0,0,0,0,3.3844,3.3844,0,3.3798,3.3797,3.3797,3.3743,3.3743,3.3742,3.3741,3.369,3.3689,3.3689,0,0,0,0,0,0,0,0,0,0,0,0,0,3.3886,3.3886,3.3845,3.3844,3.3843,3.3798,3.3797,3.3796,3.3743,3.3742,3.3742,3.3741,3.369,3.3689,3.3689,0,0,0,0,0,0,0,0,0,0,0,0,0,3.3857,3.3886,3.3845,3.3812,3.3808,3.3798,3.3797,3.3796,3.3744,3.3742,3.3741,3.374,3.369,3.369,3.3689,3.3706,0,0,3.3686,3.3685,0,0,0,0,0,0,0,0,3.3858,3.3855,3.3817,3.3814,3.381,3.3775,3.3793,3.3766,3.3744,3.3768,3.3741,3.374,3.3719,3.3716,3.3709,3.3704,3.3702,3.3686,3.3685,3.3685,3.3684,0,0,0,0,0,0,0,3.386,3.3857,3.3826,3.3816,3.3812,3.3798,3.3793,3.3788,3.3751,3.3766,3.3762,3.3757,3.3717,3.371,3.3708,3.3701,3.3686,3.3685,3.3684,3.3684,3.3708,3.3709,0,0,0,0,0,0,3.3868,3.3859,3.3827,3.3824,3.3832,3.3799,3.3792,3.3787,3.3751,3.3744,3.3758,3.3755,3.3713,3.3709,3.3706,3.3724,3.3685,3.3684,3.3683,3.3707,3.3708,3.3709,0,0,0,0,0,0,3.3869,3.3866,3.3829,3.3841,3.3835,3.3799,3.3794,3.3787,3.3781,3.3745,3.3738,3.3759,3.3712,3.3707,3.3707,3.3721,3.3683,3.3683,3.3705,3.3707,3.3709,3.3761,0,0,0,0,0,0,3.387,3.3866,3.3873,3.3841,3.3835,3.3832,3.3795,3.3787,3.3779,3.3775,3.3743,3.3737,3.371,3.3709,3.3706,3.3719,3.3682,3.3704,3.3706,3.3708,3.3757,3.3764,3.377,0,0,0,0,0,3.3872,3.3889,3.3874,3.387,3.3842,3.3833,3.3829,3.3799,3.3781,3.3787,3.3764,3.3738,3.3721,3.3709,3.3706,3.3719,3.3703,3.3705,3.3708,3.3755,3.3763,3.377,0,0,0,0,0,0,3.3922,3.3884,3.3867,3.3874,3.3857,3.3824,3.3831,3.3808,3.3795,3.3791,3.3754,3.3747,3.3751,3.3735,3.3723,3.3734,3.3708,3.371,3.3745,3.3752,3.3758,3.3761,3.3681,0,0,0,0,0,3.3934,3.393,3.3897,3.3907,3.3899,3.3867,3.3861,3.384,3.382,3.3813,3.379,3.3771,3.3762,3.3756,3.3745,3.3755,3.3747,3.3763,3.3769,3.3774,3.3776,3.378,3.3787,3.3718,3.3718,3.3718,0,0,3.3959,3.3937,3.3937,3.3916,3.3901,3.3897,3.3861,3.3858,3.3855,3.3812,3.381,3.3793,3.377,3.3775,3.3776,3.3762,3.3794,3.3778,3.3782,3.3781,3.3784,3.379,3.3796,3.372,3.372,3.3719,0,0,3.4001,3.3985,3.3991,3.3977,3.3954,3.3933,3.3935,3.3905,3.3892,3.389,3.3858,3.3853,3.3838,3.3823,3.3813,3.3851,3.3826,3.3849,3.388,3.3885,3.389,3.3895,3.3908,3.3913,3.3851,3.3851,3.3851,0,3.4034,3.4028,3.3997,3.3997,3.3988,3.3951,3.3957,3.3944,3.3919,3.3913,3.3898,3.3878,3.386,3.3861,3.3871,3.3864,3.3864,3.3852,3.3892,3.3896,3.39,3.3912,3.3918,3.3854,3.3854,3.3853,3.3853,0,3.4069,3.4066,3.4073,3.4051,3.4044,3.4046,3.4016,3.4012,3.3991,3.3971,3.397,3.3947,3.3931,3.393,3.3909,3.3928,3.392,3.3899,3.3871,3.391,3.3921,3.3925,3.3858,3.3857,3.3856,3.3855,0,0,3.414,3.4103,3.4106,3.4095,3.4068,3.4064,3.4066,3.4051,3.4049,3.4033,3.4032,3.4021,3.4001,3.399,3.3968,3.3972,3.4004,3.395,3.3949,3.3961,3.4023,3.4039,3.4045,3.3988,3.3988,3.3989,3.4025,0,3.4178,3.4178,3.4151,3.4159,3.4155,3.412,3.4121,3.4104,3.4086,3.4079,3.4058,3.4051,3.4026,3.4019,3.4022,3.3999,3.4016,3.3997,3.3986,3.3986,3.3992,3.405,3.4066,3.4101,3.4029,3.403,3.403,0,3.422,3.4209,3.4216,3.419,3.4187,3.4188,3.4173,3.4168,3.4148,3.4135,3.4123,3.4098,3.4097,3.4072,3.4069,3.4057,3.4051,3.404,3.404,3.4037,3.401,3.4048,3.4112,3.4117,3.4037,3.4036,3.4036,0,3.4271,3.4257,3.426,3.4252,3.4221,3.4223,3.421,3.419,3.4183,3.417,3.4165,3.4151,3.4144,3.4133,3.4105,3.409,3.4106,3.4078,3.4094,3.4095,3.4098,3.4098,3.416,3.4096,3.4095,3.4095,3.4095,0,3.4315,3.4321,3.4282,3.4284,3.429,3.4258,3.4265,3.4248,3.4231,3.4228,3.4197,3.4195,3.4158,3.4152,3.413,3.4131,3.4128,3.4116,3.411,3.4119,3.412,3.4114,3.411,3.4097,3.4096,3.4096,3.4096,0,3.4372,3.4346,3.4347,3.4319,3.4312,3.4317,3.4292,3.4292,3.4273,3.427,3.4267,3.4236,3.4228,3.4199,3.4183,3.4168,3.4175,3.4164,3.4182,3.4178,3.4195,3.4194,3.4255,3.4262,3.4194,3.4194,3.4195,0,3.4401,3.4405,3.4377,3.4374,3.4363,3.4358,3.4351,3.4321,3.4315,3.4294,3.4297,3.4286,3.4275,3.4263,3.4238,3.4226,3.4214,3.4236,3.4211,3.422,3.4213,3.4213,3.4214,3.4241,3.4242,3.4243,3.4243,0,3.4455,3.4443,3.4435,3.4423,3.4417,3.4406,3.4393,3.4392,3.4358,3.4353,3.4344,3.4337,3.4321,3.431,3.4294,3.428,3.4256,3.4252,3.4255,3.4263,3.4273,3.4267,3.4196,3.425,3.4249,3.4249,3.4249,3.4248,3.4499,3.4501,3.4482,3.4474,3.4462,3.4451,3.445,3.4431,3.4424,3.4409,3.4392,3.4385,3.4366,3.4342,3.433,3.4324,3.4311,3.4315,3.4316,3.4317,3.4322,3.4275,3.4321,3.4321,3.4321,3.432,3.432,0,3.4551,3.4538,3.4531,3.4515,3.4509,3.4489,3.4474,3.447,3.4465,3.445,3.4441,3.4431,3.4421,3.4396,3.4384,3.4384,3.4373,3.4382,3.4381,3.4378,3.4334,3.4333,3.4391,3.4391,3.4391,3.4391,3.4391,3.4391,3.4577,3.458,3.4566,3.4562,3.4548,3.4542,3.4535,3.4525,3.4513,3.4504,3.4496,3.448,3.4461,3.4447,3.4437,3.443,3.4427,3.4439,3.4429,3.4388,3.4381,3.4374,3.4373,3.4439,3.4439,3.4473,3.4473,3.4473]}]]